Regional Weather Roundup
Issued by NWS

Current Version | Previous Version | Text Only | Print | Product List | Glossary On
Versions: 1 2 3 4 5 6 7 8 9 10 11 12 13 14 15 16 17 18 19 20 21 22 23 24 25 26 27 28 29 30 31 32 33 34 35 36 37 38 39 40 41 42 43 44 45 46 47 48 49 50
000
ASUS46 KLOX 191612
RWRCA

SOUTHERN CALIFORNIA WEATHER ROUNDUP
NATIONAL WEATHER SERVICE OXNARD CALIFORNIA
900 AM PDT FRI SEP 19 2014

NOTE: "FAIR" INDICATES FEW OR NO CLOUDS BELOW 12,000 FEET WITH NO
SIGNIFICANT WEATHER AND/OR OBSTRUCTIONS TO VISIBILITY.

  -  STATIONS PRECEEDED BY AN ASTERISK (*) ARE NOT NWS OR FAA
     STATIONS AND ARE NOT SUBJECT TO NWS AND FAA QUALITY CONTROL.

CAZ041-042-087-191700-
LA AND ORANGE COUNTY COASTAL AREAS


CITY           SKY/WX    TMP DP  RH WIND       PRES   REMARKS
L.A. DOWNTOWN  CLOUDY    71  62  73 CALM      29.91R
L.A. AIRPORT   PTSUNNY   70  61  73 W3        29.92R
LONG BEACH     CLOUDY    73  62  68 S5        29.91R

CITY           SKY/WX    TMP DP  RH WIND       PRES   REMARKS
AVALON           N/A     70 N/A N/A MISG        N/A
FULLERTON      CLOUDY    73  62  68 SW5       29.90R
*GETTY CENTER    N/A     64  61  88 S2          N/A
HAWTHORNE      CLOUDY    71  62  73 VRB5      29.91S
*LEO CARRILLO    N/A     69  63  80 E5          N/A
*LOS ALAMITOS  CLOUDY    73  62  70 VRB5      29.91R
*REDONDO BEACH   N/A     69  63  83 CALM      29.91S
SANTA ANA      PTSUNNY   75  61  61 CALM      29.91R
STA MONICA APT PTSUNNY   71  61  70 SW5       29.91S
TORRANCE       CLOUDY    72  64  78 CALM      29.92R
*UCLA            N/A    N/A N/A N/A CALM      29.89S

$$

CAZ547-548-048-191700-
LA COUNTY VALLEYS AND INLAND EMPIRE


CITY           SKY/WX    TMP DP  RH WIND       PRES   REMARKS
BURBANK        CLOUDY    69  59  70 S3        29.92R
VAN NUYS       CLOUDY    70  59  68 E3        29.92R

CITY           SKY/WX    TMP DP  RH WIND       PRES   REMARKS
CORONA AIRPORT PTSUNNY   71  63  76 CALM      29.93R
*CHATSWORTH      N/A     69  62  77 SE3       29.88S
CHINO          PTSUNNY   71  62  73 W3        29.93R
MARCH AFB      CLOUDY    68  61  77 CALM      29.94S
*NORTHRIDGE      N/A     68  59  73 NE1         N/A
ONTARIO        CLOUDY    70  61  73 VRB3      29.93R
*PASADENA        N/A     70  63  78 E5          N/A
POMONA         CLOUDY    68  59  73 SW5       29.96
RIVERSIDE      CLOUDY    70  62  76 CALM      29.93R
SAN BERNARDINO CLOUDY    68  59  73 SW5       29.93R
*SAN GABRIEL     N/A     71  61  72 CALM      29.88S
*SAN RAFAEL HI   N/A     65  65 100 SW3         N/A
*SAUGUS          N/A     73  61  65 CALM        N/A
*WHITEMAN AP   CLOUDY    68  59  73 CALM      29.96R
*WHITTIER HILL   N/A     68  65  90 SW3         N/A
*WOODLAND HILL   N/A     70  59  68 E5          N/A

$$

CAZ054-055-191700-
LA AND SAN BERNARDINO COUNTY MOUNTAINS


CITY           SKY/WX    TMP DP  RH WIND       PRES   REMARKS
*BIG BEAR AIRP SUNNY     61  32  33 W5        30.12S
*CHILAO          N/A     64  50  59 S2          N/A
MT WILSON NWS    N/A    N/A N/A N/A MISG        N/A
SANDBERG       SUNNY     64  51  62 NW15      30.03R
*WARM SPRINGS    N/A     62  53  73 W5          N/A

$$

CAZ028-029-059-060-099-191700-
ANTELOPE VALLEY AND SURROUNDING AREAS


CITY           SKY/WX    TMP DP  RH WIND       PRES   REMARKS
LANCASTER      SUNNY     71  52  50 W12       29.94R
PALMDALE       SUNNY     71  54  54 W8        29.94S

CITY           SKY/WX    TMP DP  RH WIND       PRES   REMARKS
29 PALMS       SUNNY     77  51  40 NW8       29.97R
BARSTOW/DAGGET SUNNY     74  53  48 W12       29.92R
BISHOP         SUNNY     73  41  31 N9        30.03R
CHINA LAKE     SUNNY     72  48  42 CALM      29.91R
EDWARDS AFB    SUNNY     71  53  53 SW12      29.91S
MOJAVE         FAIR      73  50  43 W7        29.93R
NEEDLES        SUNNY     89  51  27 VRB5      29.81R
VICTORVILLE    SUNNY     70  52  52 SW7       29.96R

$$

CAZ039-040-191700-
VENTURA AND SANTA BARBARA COUNTY COAST


CITY           SKY/WX    TMP DP  RH WIND       PRES   REMARKS
CAMARILLO      CLOUDY    71  61  70 CALM      29.90S
NWS OXNARD       N/A     68  61  80 CALM      29.91R
OXNARD AIRPORT CLOUDY    67  62  84 NW5       29.90S
*POINT MUGU    CLOUDY    73  63  70 N3        29.91S
SBA APT/GOLETA CLOUDY    69  61  75 NE3       29.91R
*SANTA BARBARA   N/A     69  61  75 CALM      29.98S
*VENTURA         N/A     67  63  84 CALM      29.93F

$$

CAZ044-045-191700-
VENTURA COUNTY VALLEYS


CITY           SKY/WX    TMP DP  RH WIND       PRES   REMARKS
*SIMI VALLEY     N/A     68  62  79 CALM      29.87S
*OJAI            N/A     69  63  83 W2        29.85F
*FILLMORE        N/A     69  64  83 CALM      29.81F

$$

CAZ053-191700-
VENTURA COUNTY MOUNTAINS


CITY           SKY/WX    TMP DP  RH WIND       PRES   REMARKS
*LOCKWOOD VLY    N/A     61  46  59 MISG        N/A
*ROSE VALLEY     N/A     68  57  68 MISG        N/A

$$

CAZ034-035-036-191700-
CENTRAL COAST AND SANTA YNEZ VALLEY


CITY           SKY/WX    TMP DP  RH WIND       PRES   REMARKS
SAN LUIS OBISP SUNNY     68  59  73 NW3       29.91S
SANTA MARIA    PTSUNNY   68  59  73 W3        29.92S

CITY           SKY/WX    TMP DP  RH WIND       PRES   REMARKS
*CAL POLY SLO    N/A     64  61  88 W6          N/A
*LOMPOC        CLOUDY    66  57  72 NW3       29.93S
*PISMO BEACH     N/A     66  61  82 S2        29.92S
*SANTA YNEZ    CLOUDY    64  57  77 CALM      29.93R

$$

CAZ037-038-051-191700-
SAN LUIS OBISPO COUNTY INTERIOR AND CUYAMA VALLEY


CITY           SKY/WX    TMP DP  RH WIND       PRES   REMARKS
*CUYAMA          N/A     67  56  67 NE3       29.87S
PASO ROBLES    CLOUDY    64  57  78 NW7       29.94S

$$

CAZ032-033-061-191700-
SOUTHERN DESERTS


CITY           SKY/WX    TMP DP  RH WIND       PRES   REMARKS
BLYTHE         SUNNY     82  60  47 N3        29.80R
IMPERIAL       SUNNY     85  58  39 W14       29.78R
PALM SPRINGS   SUNNY     82  59  45 CALM      29.82R
THERMAL        SUNNY     84  60  44 NW13      29.77R

$$

ELSEWHERE ACROSS THE WESTERN UNITED STATES AND MEXICO


CITY           SKY/WX    TMP DP  RH WIND       PRES   REMARKS
DENVER, CO     MOSUNNY   74  39  28 NW9       30.03R
GRAND CANYON,  PTSUNNY   64  57  78 CALM      30.19S
HONOLULU, HI   PTCLDY    75  70  83 N3        29.92R
KAHULUI, MAUI  PTCLDY    70  64  83 SE7       29.93R
LAKE TAHOE, CA MOSUNNY   56  42  59 S3        30.15S HAZE
LAS VEGAS, NV  MOSUNNY   81  45  28 SW6       29.85R
MAMMOTH LAKES, FAIR      59  37  44 W6        30.20R
MEXICO CITY, M MOSUNNY   68  52  56 N5        30.32S
PHOENIX, AZ    MOSUNNY   88  69  53 NE3       29.83S HX  92
PORTLAND, OR   MOSUNNY   66  60  81 CALM      30.09R
RENO, NV       MOSUNNY   61  43  51 CALM      30.10R
SALT LAKE CITY MOSUNNY   69  57  65 W3        30.05R
SAN DIEGO, CA  PTSUNNY   71  63  75 NW8       29.93R
SAN FRANCISCO, PTSUNNY   66  61  84 CALM      29.92S
SAN JOSE, CA   MOSUNNY   66  59  78 W3        29.92R
SEATTLE, WA    CLOUDY    64  57  78 S5        30.09R
TIJUANA, MEX   CLOUDY    68  64  88 W8        29.94R FOG

$$

STATION/POSITION TIME  TEMP    WIND        PRES    VSBY  WAVE
                       AIR SEA DIR/SP/G                  HT/PER
                 (UTC) (F)     (DEG/KT/KT) (MB)    (MI)  (FT/S)
POINT ARGUELLO B NOT AVBL
WEST SANTA BARBA 1600   61 59  300/  8/ 10 1012.4R         6/12
POINT CONCEPTION NOT AVBL
EAST SANTA BARBA 1600   65 65   50/  6/  8 1012.8R
SANTA MONICA BAY 1600   69 72   90/  8/ 10 1012.1R         4/15



USA.gov is the U.S. government's official web portal to all federal, state and local government web resources and services.